UAE822 OEDF-OMDB

Flight info

Callsign UAE822
Flight time 1h 1m
Altitude 25000
Route ROTEL DCT DAVRI P559 VUTEB
Aircraft A339/H-SADE1E2E3GHIJ3J5M1P2RWXY/LB2D1

Departure

Time 2026-04-26 06:41
Airport King Fahd International Airport (OEDF)

Arrival

Time 2026-04-26 07:42
Airport Dubai International Airport (OMDB)
Time Latitude Longitude Altitude Speed Heading
2026-04-26 06:14 26.47031 49.79434 73 ft 0 kts 66°
2026-04-26 06:25 26.47030 49.79432 73 ft 1 kts 66°
2026-04-26 06:26 26.47028 49.79427 73 ft 0 kts 66°
2026-04-26 06:26 26.47027 49.79424 63 ft 1 kts 66°
2026-04-26 06:26 26.47024 49.79417 63 ft 1 kts 66°
2026-04-26 06:26 26.47021 49.79409 63 ft 1 kts 66°
2026-04-26 06:27 26.47018 49.79401 62 ft 1 kts 66°
2026-04-26 06:27 26.47015 49.79394 62 ft 1 kts 66°
2026-04-26 06:27 26.47013 49.79386 62 ft 1 kts 54°
2026-04-26 06:27 26.47009 49.79378 62 ft 1 kts 40°
2026-04-26 06:28 26.47004 49.79372 62 ft 1 kts 27°
2026-04-26 06:28 26.46998 49.79367 62 ft 1 kts 13°
2026-04-26 06:28 26.46988 49.79364 62 ft 2 kts
2026-04-26 06:28 26.46974 49.79363 66 ft 2 kts
2026-04-26 06:29 26.46960 49.79363 65 ft 2 kts
2026-04-26 06:29 26.46946 49.79359 62 ft 2 kts 340°
2026-04-26 06:29 26.46933 49.79365 62 ft 2 kts 311°
2026-04-26 06:29 26.46922 49.79377 62 ft 3 kts 311°
2026-04-26 06:30 26.46913 49.79389 62 ft 2 kts 326°
2026-04-26 06:30 26.46913 49.79390 62 ft 0 kts 326°
2026-04-26 06:31 26.46941 49.79374 62 ft 10 kts 334°
2026-04-26 06:31 26.46996 49.79346 62 ft 15 kts 334°
2026-04-26 06:31 26.47098 49.79291 68 ft 17 kts 335°
2026-04-26 06:32 26.47207 49.79229 63 ft 18 kts 333°
2026-04-26 06:32 26.47322 49.79169 63 ft 19 kts 337°
2026-04-26 06:32 26.47447 49.79126 63 ft 18 kts 344°
2026-04-26 06:32 26.47533 49.79165 61 ft 14 kts 63°
2026-04-26 06:33 26.47563 49.79276 67 ft 17 kts 74°
2026-04-26 06:33 26.47598 49.79417 68 ft 21 kts 75°
2026-04-26 06:33 26.47638 49.79574 69 ft 21 kts 74°
2026-04-26 06:33 26.47677 49.79734 66 ft 23 kts 74°
2026-04-26 06:34 26.47722 49.79909 69 ft 24 kts 74°
2026-04-26 06:34 26.47767 49.80085 82 ft 24 kts 74°
2026-04-26 06:34 26.47810 49.80260 84 ft 24 kts 74°
2026-04-26 06:34 26.47845 49.80411 82 ft 15 kts 82°
2026-04-26 06:35 26.47799 49.80509 85 ft 15 kts 137°
2026-04-26 06:35 26.47685 49.80634 86 ft 19 kts 136°
2026-04-26 06:35 26.47620 49.80704 86 ft 20 kts 136°
2026-04-26 06:35 26.47501 49.80788 85 ft 21 kts 161°
2026-04-26 06:36 26.47355 49.80831 86 ft 23 kts 163°
2026-04-26 06:36 26.47189 49.80886 84 ft 26 kts 164°
2026-04-26 06:36 26.47009 49.80942 87 ft 27 kts 165°
2026-04-26 06:36 26.46827 49.80997 88 ft 27 kts 165°
2026-04-26 06:37 26.46637 49.81054 89 ft 30 kts 165°
2026-04-26 06:37 26.46429 49.81119 93 ft 28 kts 164°
2026-04-26 06:37 26.46378 49.81278 91 ft 19 kts 77°
2026-04-26 06:37 26.46306 49.81368 91 ft 17 kts 160°
2026-04-26 06:38 26.46172 49.81410 91 ft 24 kts 164°
2026-04-26 06:38 26.45998 49.81464 91 ft 28 kts 165°
2026-04-26 06:38 26.45934 49.81484 88 ft 28 kts 165°
2026-04-26 06:38 26.45742 49.81543 93 ft 29 kts 164°
2026-04-26 06:39 26.45553 49.81602 93 ft 24 kts 164°
2026-04-26 06:39 26.45439 49.81593 92 ft 16 kts 230°
2026-04-26 06:39 26.45439 49.81474 91 ft 16 kts 293°
2026-04-26 06:39 26.45529 49.81399 91 ft 17 kts 340°
2026-04-26 06:40 26.45554 49.81390 89 ft 0 kts 343°
2026-04-26 06:40 26.45606 49.81373 91 ft 37 kts 343°
2026-04-26 06:40 26.46164 49.81201 90 ft 127 kts 345°
2026-04-26 06:40 26.47240 49.80877 163 ft 186 kts 345°
2026-04-26 06:41 26.48502 49.80492 986 ft 187 kts 346°
2026-04-26 06:41 26.49739 49.80095 1974 ft 180 kts 347°
2026-04-26 06:41 26.50940 49.79748 2807 ft 184 kts 347°
2026-04-26 06:41 26.52252 49.79366 3254 ft 207 kts 346°
2026-04-26 06:42 26.53715 49.78972 3694 ft 225 kts 347°
2026-04-26 06:42 26.55293 49.78528 4095 ft 244 kts 343°
2026-04-26 06:42 26.56986 49.77953 4464 ft 264 kts 342°
2026-04-26 06:42 26.58821 49.77568 5051 ft 273 kts
2026-04-26 06:43 26.60644 49.78092 5840 ft 273 kts 25°
2026-04-26 06:43 26.62204 49.79383 6300 ft 288 kts 47°
2026-04-26 06:43 26.63175 49.81327 6785 ft 296 kts 69°
2026-04-26 06:43 26.63542 49.83601 6839 ft 294 kts 86°
2026-04-26 06:44 26.63540 49.85855 6916 ft 293 kts 93°
2026-04-26 06:44 26.63638 49.88142 6990 ft 297 kts 80°
2026-04-26 06:44 26.63952 49.90434 7450 ft 300 kts 81°
2026-04-26 06:44 26.64278 49.92745 8169 ft 302 kts 81°
2026-04-26 06:45 26.64626 49.95104 8893 ft 304 kts 80°
2026-04-26 06:45 26.64961 49.97418 9608 ft 309 kts 81°
2026-04-26 06:45 26.65246 49.99822 10268 ft 317 kts 83°
2026-04-26 06:45 26.65524 50.02361 10510 ft 340 kts 83°
2026-04-26 06:46 26.65824 50.05055 10706 ft 359 kts 83°
2026-04-26 06:46 26.66143 50.07860 11114 ft 367 kts 83°
2026-04-26 06:46 26.66471 50.10705 11702 ft 371 kts 83°
2026-04-26 06:46 26.66807 50.13585 12300 ft 375 kts 83°
2026-04-26 06:47 26.67146 50.16491 12897 ft 379 kts 83°
2026-04-26 06:47 26.67487 50.19424 13481 ft 383 kts 83°
2026-04-26 06:47 26.67832 50.22403 14024 ft 388 kts 83°
2026-04-26 06:47 26.68180 50.25408 14560 ft 391 kts 83°
2026-04-26 06:48 26.68298 50.26428 14758 ft 393 kts 83°
2026-04-26 06:49 26.68629 50.29298 15250 ft 396 kts 83°
2026-04-26 06:49 26.68982 50.32362 15783 ft 400 kts 83°
2026-04-26 06:50 26.69339 50.35457 16301 ft 403 kts 83°
2026-04-26 06:50 26.69697 50.38578 16831 ft 406 kts 83°
2026-04-26 06:50 26.70058 50.41727 17334 ft 410 kts 83°
2026-04-26 06:50 26.70422 50.44906 17865 ft 414 kts 83°
2026-04-26 06:51 26.70786 50.48098 18378 ft 416 kts 83°
2026-04-26 06:51 26.71525 50.54581 19257 ft 424 kts 83°
2026-04-26 06:51 26.71898 50.57865 19723 ft 427 kts 83°
2026-04-26 06:52 26.72272 50.61172 20181 ft 430 kts 83°
2026-04-26 06:52 26.72648 50.64505 20640 ft 434 kts 83°
2026-04-26 06:52 26.73028 50.67869 21112 ft 437 kts 83°
2026-04-26 06:52 26.73408 50.71253 21580 ft 441 kts 83°
2026-04-26 06:53 26.73791 50.74666 22046 ft 444 kts 84°
2026-04-26 06:53 26.74177 50.78109 22512 ft 448 kts 84°
2026-04-26 06:53 26.74564 50.81576 22986 ft 452 kts 84°
2026-04-26 06:53 26.74954 50.85073 23446 ft 455 kts 84°
2026-04-26 06:54 26.75341 50.88560 23859 ft 459 kts 84°
2026-04-26 06:54 26.75736 50.92120 24250 ft 463 kts 84°
2026-04-26 06:54 26.76133 50.95703 24639 ft 466 kts 84°
2026-04-26 06:54 26.76530 50.99306 24891 ft 470 kts 84°
2026-04-26 06:55 26.76934 51.02965 24963 ft 476 kts 84°
2026-04-26 06:55 26.77213 51.06691 24976 ft 484 kts 91°
2026-04-26 06:55 26.76944 51.10419 24972 ft 479 kts 102°
2026-04-26 06:55 26.76114 51.14002 24970 ft 474 kts 112°
2026-04-26 06:56 26.74971 51.17461 24972 ft 474 kts 114°
2026-04-26 06:56 26.73840 51.20926 24971 ft 474 kts 113°
2026-04-26 06:56 26.72723 51.24389 24969 ft 474 kts 113°
2026-04-26 06:56 26.71610 51.27854 24967 ft 474 kts 113°
2026-04-26 06:57 26.70496 51.31326 24965 ft 473 kts 113°
2026-04-26 06:57 26.69384 51.34783 24964 ft 473 kts 113°
2026-04-26 06:57 26.68268 51.38249 24976 ft 473 kts 113°
2026-04-26 06:57 26.67152 51.41711 24962 ft 473 kts 113°
2026-04-26 06:58 26.66037 51.45168 24960 ft 473 kts 113°
2026-04-26 06:58 26.64923 51.48628 24977 ft 473 kts 113°
2026-04-26 06:58 26.63811 51.52092 24976 ft 473 kts 113°
2026-04-26 06:58 26.62701 51.55546 24961 ft 473 kts 113°
2026-04-26 06:59 26.61589 51.59005 24959 ft 473 kts 113°
2026-04-26 06:59 26.60474 51.62467 24972 ft 473 kts 113°
2026-04-26 06:59 26.59360 51.65923 24969 ft 473 kts 113°
2026-04-26 06:59 26.58263 51.69320 24964 ft 473 kts 113°
2026-04-26 07:00 26.57146 51.72774 24961 ft 472 kts 113°
2026-04-26 07:00 26.56031 51.76223 24959 ft 472 kts 113°
2026-04-26 07:00 26.54916 51.79669 24957 ft 472 kts 113°
2026-04-26 07:00 26.53798 51.83122 24958 ft 472 kts 113°
2026-04-26 07:01 26.52682 51.86566 24951 ft 472 kts 113°
2026-04-26 07:01 26.51560 51.90005 24956 ft 472 kts 113°
2026-04-26 07:01 26.50419 51.93441 24954 ft 472 kts 114°
2026-04-26 07:01 26.49276 51.96866 24954 ft 471 kts 114°
2026-04-26 07:02 26.48130 52.00297 24957 ft 471 kts 114°
2026-04-26 07:02 26.46988 52.03720 24949 ft 471 kts 114°
2026-04-26 07:02 26.45846 52.07145 24948 ft 471 kts 114°
2026-04-26 07:02 26.44705 52.10566 24952 ft 471 kts 114°
2026-04-26 07:03 26.43563 52.13989 24950 ft 470 kts 114°
2026-04-26 07:03 26.42422 52.17402 24949 ft 470 kts 114°
2026-04-26 07:03 26.41277 52.20824 24951 ft 470 kts 114°
2026-04-26 07:03 26.40135 52.24233 24944 ft 470 kts 114°
2026-04-26 07:04 26.38991 52.27646 24944 ft 470 kts 114°
2026-04-26 07:04 26.37846 52.31059 24946 ft 470 kts 114°
2026-04-26 07:04 26.36700 52.34470 24942 ft 469 kts 114°
2026-04-26 07:04 26.35557 52.37872 24939 ft 469 kts 114°
2026-04-26 07:05 26.34372 52.41263 24942 ft 468 kts 116°
2026-04-26 07:05 26.33090 52.44602 24942 ft 468 kts 117°
2026-04-26 07:05 26.31782 52.47922 24940 ft 468 kts 117°
2026-04-26 07:05 26.30479 52.51239 24940 ft 468 kts 117°
2026-04-26 07:06 26.29182 52.54574 24941 ft 468 kts 117°
2026-04-26 07:06 26.27893 52.57909 24937 ft 469 kts 116°
2026-04-26 07:06 26.26610 52.61242 24937 ft 469 kts 116°
2026-04-26 07:06 26.25324 52.64583 24937 ft 468 kts 116°
2026-04-26 07:07 26.24043 52.67912 24936 ft 469 kts 116°
2026-04-26 07:07 26.22760 52.71253 24935 ft 469 kts 116°
2026-04-26 07:07 26.21484 52.74593 24937 ft 469 kts 116°
2026-04-26 07:07 26.20206 52.77938 24935 ft 469 kts 116°
2026-04-26 07:08 26.18929 52.81275 24937 ft 469 kts 116°
2026-04-26 07:08 26.17648 52.84617 24935 ft 469 kts 116°
2026-04-26 07:08 26.16367 52.87956 24934 ft 469 kts 116°
2026-04-26 07:08 26.15085 52.91296 24930 ft 469 kts 116°
2026-04-26 07:09 26.13803 52.94631 24932 ft 469 kts 116°
2026-04-26 07:09 26.12520 52.97964 24929 ft 469 kts 116°
2026-04-26 07:09 26.11251 53.01260 24931 ft 469 kts 116°
2026-04-26 07:09 26.09968 53.04592 24932 ft 469 kts 116°
2026-04-26 07:10 26.06246 53.14725 24927 ft 470 kts 115°
2026-04-26 07:11 26.03803 53.21402 24924 ft 469 kts 116°
2026-04-26 07:11 26.02568 53.24758 24926 ft 469 kts 116°
2026-04-26 07:11 26.01329 53.28119 24923 ft 469 kts 116°
2026-04-26 07:11 26.00089 53.31477 24921 ft 469 kts 116°
2026-04-26 07:12 25.98847 53.34837 24922 ft 469 kts 116°
2026-04-26 07:12 25.97608 53.38188 24920 ft 469 kts 116°
2026-04-26 07:12 25.96366 53.41544 24923 ft 469 kts 116°
2026-04-26 07:12 25.95124 53.44898 24921 ft 469 kts 116°
2026-04-26 07:13 25.93882 53.48249 24922 ft 469 kts 116°
2026-04-26 07:13 25.92648 53.51603 24919 ft 470 kts 115°
2026-04-26 07:13 25.91469 53.54997 24920 ft 470 kts 114°
2026-04-26 07:13 25.90317 53.58396 24920 ft 470 kts 114°
2026-04-26 07:14 25.89164 53.61795 24919 ft 470 kts 114°
2026-04-26 07:14 25.88003 53.65193 24918 ft 470 kts 114°
2026-04-26 07:14 25.86840 53.68577 24919 ft 470 kts 114°
2026-04-26 07:14 25.85670 53.71968 24922 ft 470 kts 114°
2026-04-26 07:15 25.84495 53.75362 24920 ft 470 kts 114°
2026-04-26 07:15 25.83320 53.78746 24920 ft 470 kts 114°
2026-04-26 07:15 25.82524 53.81037 24920 ft 470 kts 114°
2026-04-26 07:15 25.81731 53.83316 24918 ft 470 kts 114°
2026-04-26 07:16 25.80555 53.86698 24920 ft 470 kts 114°
2026-04-26 07:16 25.79376 53.90084 24921 ft 470 kts 114°
2026-04-26 07:16 25.78199 53.93465 24917 ft 470 kts 114°
2026-04-26 07:16 25.77405 53.95742 24917 ft 470 kts 114°
2026-04-26 07:17 25.76225 53.99124 24916 ft 470 kts 114°
2026-04-26 07:17 25.75052 54.02510 24915 ft 470 kts 113°
2026-04-26 07:17 25.73971 54.05935 24917 ft 471 kts 111°
2026-04-26 07:17 25.72952 54.09340 24916 ft 471 kts 111°
2026-04-26 07:18 25.71925 54.12782 24913 ft 471 kts 111°
2026-04-26 07:18 25.70887 54.16226 24849 ft 471 kts 111°
2026-04-26 07:18 25.69840 54.19658 24573 ft 470 kts 111°
2026-04-26 07:18 25.68787 54.23088 23983 ft 471 kts 112°
2026-04-26 07:19 25.67723 54.26537 23242 ft 473 kts 112°
2026-04-26 07:19 25.66665 54.29956 22363 ft 469 kts 111°
2026-04-26 07:19 25.65605 54.33377 21407 ft 468 kts 111°
2026-04-26 07:19 25.64551 54.36777 20627 ft 463 kts 111°
2026-04-26 07:20 25.63509 54.40134 19874 ft 458 kts 110°
2026-04-26 07:20 25.62482 54.43443 19131 ft 452 kts 110°
2026-04-26 07:20 25.61467 54.46712 18452 ft 445 kts 110°
2026-04-26 07:20 25.60465 54.49933 17815 ft 436 kts 110°
2026-04-26 07:21 25.59489 54.53077 17188 ft 426 kts 110°
2026-04-26 07:21 25.58572 54.56159 16573 ft 416 kts 106°
2026-04-26 07:21 25.58101 54.59282 15980 ft 408 kts 95°
2026-04-26 07:21 25.58175 54.62393 15369 ft 401 kts 83°
2026-04-26 07:22 25.58587 54.65404 14793 ft 392 kts 82°
2026-04-26 07:22 25.58984 54.68366 14249 ft 384 kts 82°
2026-04-26 07:22 25.59359 54.71271 13703 ft 377 kts 83°
2026-04-26 07:22 25.59719 54.74127 13120 ft 370 kts 83°
2026-04-26 07:23 25.60067 54.76918 12600 ft 361 kts 83°
2026-04-26 07:23 25.60405 54.79643 12078 ft 354 kts 83°
2026-04-26 07:23 25.60748 54.82400 11677 ft 375 kts 82°
2026-04-26 07:23 25.60944 54.85292 11549 ft 377 kts 92°
2026-04-26 07:24 25.60533 54.88141 11363 ft 374 kts 107°
2026-04-26 07:24 25.59572 54.90808 11140 ft 372 kts 116°
2026-04-26 07:24 25.58514 54.93415 11029 ft 371 kts 115°
2026-04-26 07:24 25.57475 54.96025 10876 ft 367 kts 115°
2026-04-26 07:25 25.56474 54.98576 10766 ft 355 kts 115°
2026-04-26 07:25 25.55518 55.01029 10626 ft 338 kts 114°
2026-04-26 07:25 25.54601 55.03357 10449 ft 320 kts 116°
2026-04-26 07:25 25.53552 55.05475 10028 ft 310 kts 121°
2026-04-26 07:26 25.52486 55.07505 9903 ft 305 kts 121°
2026-04-26 07:26 25.51412 55.09555 9738 ft 308 kts 121°
2026-04-26 07:26 25.50346 55.11597 9566 ft 305 kts 121°
2026-04-26 07:26 25.49288 55.13633 9395 ft 304 kts 121°
2026-04-26 07:27 25.48235 55.15662 9226 ft 304 kts 121°
2026-04-26 07:27 25.47185 55.17684 9054 ft 303 kts 121°
2026-04-26 07:27 25.46111 55.19682 8890 ft 301 kts 125°
2026-04-26 07:27 25.44793 55.21472 8735 ft 300 kts 134°
2026-04-26 07:28 25.43379 55.23173 8575 ft 299 kts 134°
2026-04-26 07:28 25.41979 55.24870 8395 ft 298 kts 133°
2026-04-26 07:28 25.40592 55.26565 8237 ft 297 kts 133°
2026-04-26 07:28 25.39207 55.28264 8081 ft 297 kts 133°
2026-04-26 07:29 25.37830 55.29956 8004 ft 296 kts 133°
2026-04-26 07:29 25.36470 55.31629 7998 ft 296 kts 133°
2026-04-26 07:29 25.35170 55.33419 7880 ft 295 kts 124°
2026-04-26 07:29 25.34073 55.35400 7428 ft 298 kts 121°
2026-04-26 07:30 25.33015 55.37350 7255 ft 291 kts 121°
2026-04-26 07:30 25.31971 55.39270 7100 ft 294 kts 121°
2026-04-26 07:30 25.30907 55.41207 6935 ft 294 kts 122°
2026-04-26 07:30 25.29839 55.43126 6770 ft 293 kts 122°
2026-04-26 07:31 25.28768 55.45042 6607 ft 293 kts 122°
2026-04-26 07:31 25.27698 55.46949 6445 ft 292 kts 122°
2026-04-26 07:31 25.26638 55.48854 6275 ft 292 kts 122°
2026-04-26 07:31 25.25579 55.50752 6047 ft 290 kts 122°
2026-04-26 07:32 25.24517 55.52653 5736 ft 292 kts 121°
2026-04-26 07:32 25.23455 55.54556 5346 ft 290 kts 121°
2026-04-26 07:32 25.22411 55.56438 4975 ft 283 kts 121°
2026-04-26 07:32 25.21392 55.58264 4589 ft 274 kts 120°
2026-04-26 07:33 25.20410 55.60026 4182 ft 265 kts 121°
2026-04-26 07:33 25.19447 55.61735 3817 ft 260 kts 120°
2026-04-26 07:33 25.18510 55.63422 3432 ft 255 kts 120°
2026-04-26 07:33 25.17595 55.65081 3065 ft 251 kts 120°
2026-04-26 07:34 25.16631 55.66685 2672 ft 251 kts 130°
2026-04-26 07:34 25.15227 55.67769 2311 ft 246 kts 159°
2026-04-26 07:34 25.13583 55.67990 2085 ft 234 kts 189°
2026-04-26 07:34 25.12161 55.67340 2012 ft 212 kts 221°
2026-04-26 07:35 25.11314 55.66115 2007 ft 193 kts 249°
2026-04-26 07:35 25.10828 55.64801 2018 ft 183 kts 256°
2026-04-26 07:35 25.10745 55.63428 2012 ft 179 kts 281°
2026-04-26 07:35 25.11132 55.62140 2019 ft 180 kts 298°
2026-04-26 07:36 25.11740 55.60933 2015 ft 179 kts 303°
2026-04-26 07:36 25.12386 55.59777 2014 ft 175 kts 302°
2026-04-26 07:36 25.13003 55.58652 2022 ft 175 kts 303°
2026-04-26 07:36 25.13650 55.57489 2033 ft 177 kts 302°
2026-04-26 07:37 25.14275 55.56345 2032 ft 177 kts 303°
2026-04-26 07:37 25.14932 55.55161 2019 ft 177 kts 303°
2026-04-26 07:37 25.15555 55.54020 2028 ft 173 kts 303°
2026-04-26 07:37 25.16179 55.52907 2041 ft 157 kts 303°
2026-04-26 07:38 25.16739 55.51887 2020 ft 147 kts 303°
2026-04-26 07:38 25.17268 55.50931 2039 ft 151 kts 304°
2026-04-26 07:38 25.17828 55.49920 2011 ft 148 kts 302°
2026-04-26 07:38 25.18352 55.48977 1916 ft 145 kts 303°
2026-04-26 07:39 25.18853 55.48057 1751 ft 140 kts 302°
2026-04-26 07:39 25.19366 55.47144 1579 ft 139 kts 304°
2026-04-26 07:39 25.19861 55.46243 1417 ft 139 kts 303°
2026-04-26 07:39 25.20372 55.45320 1247 ft 141 kts 302°
2026-04-26 07:40 25.20865 55.44426 1108 ft 138 kts 302°
2026-04-26 07:40 25.21363 55.43502 919 ft 138 kts 302°
2026-04-26 07:40 25.21873 55.42599 735 ft 141 kts 302°
2026-04-26 07:40 25.22373 55.41689 520 ft 135 kts 301°
2026-04-26 07:41 25.22851 55.40822 325 ft 135 kts 299°
2026-04-26 07:41 25.23358 55.39905 165 ft 140 kts 299°
2026-04-26 07:41 25.23841 55.39019 29 ft 124 kts 301°
2026-04-26 07:41 25.24188 55.38400 28 ft 65 kts 301°
2026-04-26 07:42 25.24323 55.38167 28 ft 8 kts 303°
2026-04-26 07:42 25.24332 55.38150 28 ft 12 kts 303°
2026-04-26 07:42 25.24413 55.38007 28 ft 26 kts 301°
2026-04-26 07:42 25.24419 55.37886 28 ft 18 kts 231°
2026-04-26 07:43 25.24342 55.37785 28 ft 9 kts 271°
2026-04-26 07:43 25.24391 55.37685 28 ft 24 kts 303°
2026-04-26 07:43 25.24480 55.37523 28 ft 24 kts 301°
2026-04-26 07:43 25.24567 55.37364 28 ft 24 kts 302°
2026-04-26 07:44 25.24655 55.37205 28 ft 24 kts 301°
2026-04-26 07:44 25.24744 55.37046 28 ft 24 kts 302°
2026-04-26 07:44 25.24829 55.36887 28 ft 24 kts 298°
2026-04-26 07:44 25.24878 55.36709 28 ft 24 kts 287°
2026-04-26 07:45 25.24956 55.36544 28 ft 24 kts 301°
2026-04-26 07:45 25.25037 55.36396 28 ft 22 kts 301°
2026-04-26 07:45 25.25056 55.36305 28 ft 10 kts 253°
2026-04-26 07:45 25.25037 55.36227 28 ft 11 kts 275°
2026-04-26 07:46 25.25054 55.36185 28 ft 0 kts 298°
2026-04-26 07:46 25.25056 55.36181 28 ft 3 kts 298°
2026-04-26 07:46 25.25082 55.36129 28 ft 13 kts 300°
2026-04-26 07:46 25.25121 55.36048 28 ft 6 kts 283°
2026-04-26 07:47 25.25100 55.36023 28 ft 9 kts 223°
2026-04-26 07:47 25.25048 55.35982 28 ft 0 kts 212°
2026-04-26 07:47 25.25047 55.35982 28 ft 1 kts 212°
2026-04-26 07:47 25.25047 55.35981 28 ft 0 kts 212°